Location: Anjeux
(47.8815°N, 6.2076°E)
Time: 20:24:58
(UTC+00:00)

NOSS 3-4 (C) - Pass Details

Date: 05 March 2021
Orbit: 873 x 1340 km, 63.4° (Epoch: 20 April)

Event Time Altitude Azimuth Distance (km) Brightness Sun altitude
Rises 05:21:53 0° 213° (SSW) 3,452 6.0 -8.6°
Reaches altitude 10° 05:24:18 10° 212° (SSW) 2,530 5.4 -8.2°
Maximum altitude 05:30:06 78° 128° (SE) 938 3.6 -7.2°
Drops below altitude 10° 05:36:25 10° 43° (NE) 2,732 6.5 -6.1°
Sets 05:39:07 0° 42° (NE) 3,748 7.2 -5.7°
